Location: College Rock
(37.2713°N, 119.1740°W)
Time: 04:19:59
(UTC+00:00)

Cosmos 2292 Rocket - Pass Details

Date: 29 October 2020
Orbit: 381 x 1451 km, 83.0° (Epoch: 23 November)

Event Time Altitude Azimuth Distance (km) Brightness Sun altitude
Rises 13:46:47 0° 194° (SSW) 2,260 6.4 -7.0°
Reaches altitude 10° 13:48:39 10° 199° (SSW) 1,447 5.4 -6.7°
Maximum altitude 13:51:39 56° 279° (W) 527 2.9 -6.1°
Drops below altitude 10° 13:55:15 10° 359° (N) 1,730 5.7 -5.4°
Sets 13:57:40 0° 3° (N) 2,770 6.8 -4.9°
